Change the Weather History Date:

Thursday, January 12, 2012

  Actual Average Record
Temperature  
Mean Temperature 56 °F 58 °F  
Max Temperature 66 °F 69 °F 83 °F (1953)
Min Temperature 46 °F 47 °F 27 °F (1882)
Degree Days  
Heating Degree Days 9 7  
Month to date heating degree days 38 88  
Growing Degree Days 5 (Base 50)    
Moisture  
Dew Point 14 °F    
Average Humidity 23    
Maximum Humidity 33    
Minimum Humidity 12    
Precipitation  
Precipitation 0.00 in 0.01 in 1.38 in (1949)
Month to date precipitation 0.00 0.17  
Year to date precipitation 0.00 0.17  
Sea Level Pressure  
Sea Level Pressure 30.05 in    
Wind  
Wind Speed 8 mph (North)    
Max Wind Speed 20 mph    
Max Gust Speed 24 mph    
Visibility 10 miles    
Events      
T = Trace of Precipitation, MM = Missing Value Source: NWS Daily Summary

Daily Weather History Graph

Daily Weather History Graph

Search for Another Location

Airport or City:

Trip Planner

Search our weather history database for the weather conditions in past years. The results will help you decide how hot, cold, wet, or windy it might be!

Date:

Astronomy

Jan. 12, 2012 Rise Set
Actual Time 7:41 AM MST 5:52 PM MST
Civil Twilight 7:14 AM MST 6:19 PM MST
Nautical Twilight 6:44 AM MST 6:49 PM MST
Astronomical Twilight 6:14 AM MST 7:19 PM MST
Moon 9:46 PM MST (1/12) 9:41 AM MST (1/12)
Length of Visible Light 11h 04m
Length of Day
10h 11m
Waning Gibbous, 86% of the Moon is Illuminated
Jan 12
Waning Gibbous
Jan 16
Last Quarter
Jan 23
New
Jan 30
First Quarter
Feb 7
Full

Hourly Weather History & Observations

Time (MST) Temp. Dew Point Humidity Pressure Visibility Wind Dir Wind Speed Gust Speed Precip Events Conditions
12:55 AM 62.1 °F 18.0 °F 18% 30.01 in 10.0 mi North 9.2 mph - N/A   Clear
1:00 AM - - N/A% - - North - - N/A   Unknown
1:55 AM 61.0 °F 15.1 °F 17% 30.01 in 10.0 mi NW 6.9 mph - N/A   Clear
2:55 AM 60.1 °F 14.0 °F 16% 30.01 in 10.0 mi North 9.2 mph - N/A   Clear
3:55 AM 60.1 °F 12.0 °F 15% 30.00 in 10.0 mi North 10.4 mph - N/A   Clear
4:55 AM 57.0 °F 16.0 °F 20% 30.01 in 10.0 mi NNE 4.6 mph - N/A   Clear
5:55 AM 57.9 °F 10.9 °F 16% 30.02 in 10.0 mi NNE 8.1 mph - N/A   Clear
6:55 AM 55.9 °F 16.0 °F 21% 30.04 in 10.0 mi NNE 6.9 mph - N/A   Mostly Cloudy
7:55 AM 55.0 °F 19.0 °F 24% 30.06 in 10.0 mi North 4.6 mph - N/A   Mostly Cloudy
8:55 AM 59.0 °F 12.9 °F 16% 30.06 in 10.0 mi North 11.5 mph - N/A   Mostly Cloudy
9:55 AM 61.0 °F 12.0 °F 15% 30.08 in 10.0 mi NNE 12.7 mph - N/A   Mostly Cloudy
10:55 AM 62.1 °F 12.9 °F 15% 30.09 in 10.0 mi North 10.4 mph - N/A   Mostly Cloudy
11:55 AM 64.9 °F 10.9 °F 12% 30.08 in 10.0 mi NNE 16.1 mph 23.0 mph N/A   Mostly Cloudy
12:55 PM 63.0 °F 12.0 °F 14% 30.05 in 10.0 mi North 17.3 mph 21.9 mph N/A   Mostly Cloudy
1:55 PM 64.0 °F 12.9 °F 14% 30.03 in 10.0 mi North 11.5 mph 19.6 mph N/A   Mostly Cloudy
2:55 PM 64.0 °F 10.9 °F 13% 30.02 in 10.0 mi North 12.7 mph - N/A   Mostly Cloudy
3:55 PM 64.0 °F 12.0 °F 13% 30.02 in 10.0 mi North 11.5 mph - N/A   Clear
4:55 PM 64.0 °F 10.9 °F 13% 30.03 in 10.0 mi NNE 9.2 mph - N/A   Clear
5:55 PM 61.0 °F 12.9 °F 15% 30.04 in 10.0 mi NNW 3.5 mph - N/A   Clear
6:13 PM - - N/A% - - North - - N/A   Unknown
6:55 PM 59.0 °F 12.0 °F 16% 30.05 in 10.0 mi Calm Calm - N/A   Clear
7:55 PM 55.9 °F 12.9 °F 18% 30.05 in 10.0 mi North 8.1 mph - N/A   Clear
8:55 PM 57.9 °F 10.9 °F 16% 30.07 in 10.0 mi NW 4.6 mph - N/A   Clear
9:55 PM 51.1 °F 17.1 °F 26% 30.08 in 10.0 mi WNW 3.5 mph - N/A   Clear
10:55 PM 46.9 °F 19.0 °F 33% 30.08 in 10.0 mi Calm Calm - N/A   Clear
11:55 PM 46.9 °F 18.0 °F 32% 30.09 in 10.0 mi Calm Calm - N/A   Clear